User: anonymous   Login
Location: Lawrence Hall of Science
(37.8785°N, 122.2415°W)
Time: 15:36:37
(UTC-07:00)
Language:

Cosmos 2098 Rocket - Orbit

View from above orbital plane
View from above orbital plane
View from above satellite
View from above satellite

Ground track
Ground track

The orbit data is extracted from the following two-line orbital elements,

1 20775U 90078B   17230.82999152  .00004872  00000-0  24099-3 0  9991
2 20775  82.9311 356.8314 0588482 149.1367 214.5864 14.30892934357720
Epoch (UTC): 18 August 2017 19:55:11
Eccentricity: 0.0588482
inclination: 82.9311°
perigee height: 367 km
apogee height: 1210 km
right ascension of ascending node: 356.8314°
argument of perigee: 149.1367°
revolutions per day: 14.30892934
mean anomaly at epoch: 214.5864°
orbit number at epoch: 35772

The dashed part of the orbit path shows where the satellite is in the earth's shadow,  

DLR